When you browse on this site, cookies collect data to enhance your experience and personalize the content and advertising you see.
Visit our Privacy Policy to learn more. By continuing to use the site, you agree to this use of cookies and data.
  • în România
  • Lista ţărilor
  • Pe 7 zile
  • Temperatura apei
  • Meteo pe hartă
  • Widget-uri
  • user-avatar
    Intrare

    Meteo pe oră la Booué

    Astăzi, 8 Decembrie, Duminică

    Timp Temperatura Precipitaţii Vânt Presiune Umiditate
    00:00 +22°C° 0 mm 0 m/s 734 mmHg 98%
    01:00 +21°C° 0 mm 0 m/s 734 mmHg 98%
    02:00 +21°C° 0 mm 0 m/s 734 mmHg 98%
    03:00 +21°C° 0 mm 0 m/s 733 mmHg 98%
    04:00 +21°C° 0 mm 0 m/s 733 mmHg 99%
    05:00 +21°C° 0 mm 0 m/s 733 mmHg 98%
    06:00 +21°C° 0 mm 0 m/s 734 mmHg 98%
    07:00 +22°C° 0 mm 0 m/s 734 mmHg 98%
    08:00 +25°C° 0 mm 0 m/s 734 mmHg 87%
    09:00 +27°C° 0 mm 0 m/s 734 mmHg 76%
    10:00 +30°C° 0 mm 0 m/s 734 mmHg 65%
    11:00 +31°C° 0 mm 0 m/s 734 mmHg 59%
    12:00 +32°C° 0 mm 0 m/s 733 mmHg 53%
    13:00 +34°C° 0 mm 0 m/s 732 mmHg 48%
    14:00 +33°C° 0 mm 0 m/s 732 mmHg 50%
    15:00 +32°C° 0 mm 0 m/s 731 mmHg 51%
    16:00 +31°C° 0 mm 0 m/s 730 mmHg 53%
    17:00 +30°C° 0 mm 0 m/s 731 mmHg 60%
    18:00 +28°C° 0 mm 0 m/s 732 mmHg 67%
    19:00 +26°C° 0 mm 0 m/s 732 mmHg 74%
    20:00 +25°C° 0.4 mm 0 m/s 733 mmHg 79%
    21:00 +24°C° 0.4 mm 0 m/s 733 mmHg 84%
    22:00 +23°C° 0.4 mm 0 m/s 734 mmHg 89%
    23:00 +23°C° 2.3 mm 0 m/s 733 mmHg 91%

    Mâine, 9 Decembrie, Luni

    Timp Temperatura Precipitaţii Vânt Presiune Umiditate
    00:00 +24°C° 2.3 mm 1 m/s 733 mmHg 94%
    01:00 +24°C° 2.3 mm 1 m/s 733 mmHg 97%
    02:00 +24°C° 0.1 mm 1 m/s 733 mmHg 97%
    03:00 +22°C° 0.1 mm 0 m/s 733 mmHg 98%
    04:00 +22°C° 0.1 mm 0 m/s 733 mmHg 98%
    05:00 +22°C° 0.5 mm 0 m/s 733 mmHg 98%
    06:00 +22°C° 0.5 mm 0 m/s 734 mmHg 97%
    07:00 +22°C° 0.5 mm 0 m/s 734 mmHg 97%
    08:00 +26°C° 0.2 mm 1 m/s 734 mmHg 90%
    09:00 +28°C° 0.2 mm 1 m/s 734 mmHg 82%
    10:00 +29°C° 0.2 mm 1 m/s 735 mmHg 75%
    11:00 +29°C° 0.9 mm 1 m/s 734 mmHg 76%
    12:00 +30°C° 0.9 mm 1 m/s 733 mmHg 78%
    13:00 +30°C° 0.9 mm 1 m/s 733 mmHg 79%
    14:00 +30°C° 0.8 mm 1 m/s 732 mmHg 80%
    15:00 +29°C° 0.8 mm 1 m/s 732 mmHg 80%
    16:00 +29°C° 0.8 mm 1 m/s 732 mmHg 81%
    17:00 +28°C° 0.7 mm 1 m/s 732 mmHg 85%
    18:00 +24°C° 0.7 mm 0 m/s 732 mmHg 90%
    19:00 +23°C° 0.7 mm 0 m/s 733 mmHg 94%
    20:00 +23°C° 0.4 mm 0 m/s 733 mmHg 94%
    21:00 +22°C° 0.4 mm 0 m/s 734 mmHg 94%
    22:00 +22°C° 0.4 mm 0 m/s 734 mmHg 94%
    23:00 +22°C° 0 mm 0 m/s 734 mmHg 94%

    Poimâine, 10 Decembrie, Marţi

    Timp Temperatura Precipitaţii Vânt Presiune Umiditate
    00:00 +22°C° 0 mm 0 m/s 734 mmHg 95%
    01:00 +21°C° 0 mm 0 m/s 733 mmHg 96%
    02:00 +21°C° 0 mm 0 m/s 733 mmHg 96%
    03:00 +21°C° 0 mm 0 m/s 733 mmHg 96%
    04:00 +22°C° 0 mm 0 m/s 732 mmHg 96%
    05:00 +22°C° 0 mm 0 m/s 733 mmHg 96%
    06:00 +22°C° 0 mm 0 m/s 733 mmHg 96%
    07:00 +22°C° 0 mm 0 m/s 734 mmHg 96%
    08:00 +23°C° 0 mm 0 m/s 734 mmHg 92%
    09:00 +24°C° 0 mm 0 m/s 734 mmHg 88%
    10:00 +27°C° 0 mm 1 m/s 734 mmHg 85%
    11:00 +28°C° 0.1 mm 1 m/s 734 mmHg 78%
    12:00 +29°C° 0.1 mm 1 m/s 733 mmHg 72%
    13:00 +31°C° 0.1 mm 1 m/s 733 mmHg 66%
    14:00 +30°C° 0.3 mm 1 m/s 732 mmHg 67%
    15:00 +30°C° 0.3 mm 1 m/s 732 mmHg 68%
    16:00 +30°C° 0.3 mm 1 m/s 731 mmHg 69%
    17:00 +28°C° 0.4 mm 1 m/s 732 mmHg 77%
    18:00 +27°C° 0.4 mm 1 m/s 732 mmHg 85%
    19:00 +23°C° 0.4 mm 0 m/s 733 mmHg 93%
    20:00 +23°C° 0.3 mm 0 m/s 733 mmHg 93%
    21:00 +22°C° 0.3 mm 0 m/s 734 mmHg 94%
    22:00 +22°C° 0.3 mm 0 m/s 734 mmHg 95%
    23:00 +22°C° 0 mm 0 m/s 734 mmHg 95%

    11 Decembrie, Miercuri

    Timp Temperatura Precipitaţii Vânt Presiune Umiditate
    00:00 +21°C° 0 mm 0 m/s 733 mmHg 96%
    01:00 +21°C° 0 mm 0 m/s 733 mmHg 96%
    02:00 +21°C° 0 mm 0 m/s 733 mmHg 97%
    03:00 +21°C° 0 mm 0 m/s 733 mmHg 97%
    04:00 +21°C° 0 mm 0 m/s 732 mmHg 98%
    05:00 +21°C° 0 mm 0 m/s 733 mmHg 97%
    06:00 +21°C° 0 mm 0 m/s 733 mmHg 97%
    07:00 +21°C° 0 mm 0 m/s 734 mmHg 96%
    08:00 +22°C° 0 mm 0 m/s 734 mmHg 94%
    09:00 +23°C° 0 mm 0 m/s 734 mmHg 91%
    10:00 +24°C° 0 mm 0 m/s 735 mmHg 89%
    11:00 +24°C° 0 mm 0 m/s 734 mmHg 88%
    12:00 +24°C° 0 mm 0 m/s 734 mmHg 86%
    13:00 +25°C° 0 mm 0 m/s 733 mmHg 85%
    14:00 +26°C° 0 mm 0 m/s 732 mmHg 79%
    15:00 +29°C° 0 mm 1 m/s 732 mmHg 74%
    16:00 +30°C° 0 mm 1 m/s 732 mmHg 68%
    17:00 +26°C° 0 mm 0 m/s 732 mmHg 75%
    18:00 +25°C° 0 mm 0 m/s 732 mmHg 81%
    19:00 +23°C° 0 mm 0 m/s 733 mmHg 87%
    20:00 +23°C° 0.4 mm 0 m/s 733 mmHg 88%
    21:00 +23°C° 0.4 mm 0 m/s 734 mmHg 90%
    22:00 +23°C° 0.4 mm 0 m/s 734 mmHg 91%
    23:00 +22°C° 0 mm 0 m/s 734 mmHg 92%

    12 Decembrie, Joi

    Timp Temperatura Precipitaţii Vânt Presiune Umiditate
    00:00 +22°C° 0 mm 0 m/s 734 mmHg 93%
    01:00 +22°C° 0 mm 0 m/s 734 mmHg 94%
    02:00 +22°C° 0.1 mm 0 m/s 733 mmHg 95%
    03:00 +21°C° 0.1 mm 0 m/s 733 mmHg 96%
    04:00 +21°C° 0.1 mm 0 m/s 733 mmHg 97%
    05:00 +21°C° 0 mm 0 m/s 733 mmHg 96%
    06:00 +22°C° 0 mm 0 m/s 734 mmHg 95%
    07:00 +22°C° 0 mm 0 m/s 734 mmHg 94%
    08:00 +24°C° 0 mm 0 m/s 734 mmHg 87%
    09:00 +27°C° 0 mm 1 m/s 734 mmHg 80%
    10:00 +29°C° 0 mm 1 m/s 734 mmHg 73%
    11:00 +30°C° 0.3 mm 1 m/s 734 mmHg 68%
    12:00 +31°C° 0.3 mm 1 m/s 733 mmHg 63%
    13:00 +32°C° 0.3 mm 1 m/s 732 mmHg 59%
    14:00 +31°C° 0.8 mm 1 m/s 732 mmHg 66%
    15:00 +30°C° 0.8 mm 1 m/s 731 mmHg 74%
    16:00 +29°C° 0.8 mm 1 m/s 731 mmHg 82%
    17:00 +28°C° 0 mm 1 m/s 731 mmHg 85%
    18:00 +25°C° 0 mm 0 m/s 732 mmHg 88%
    19:00 +24°C° 0 mm 0 m/s 732 mmHg 91%
    20:00 +23°C° 0.3 mm 0 m/s 733 mmHg 92%
    21:00 +23°C° 0.3 mm 0 m/s 733 mmHg 92%
    22:00 +23°C° 0.3 mm 0 m/s 734 mmHg 93%
    23:00 +23°C° 1 mm 0 m/s 734 mmHg 94%

    13 Decembrie, Vineri

    Timp Temperatura Precipitaţii Vânt Presiune Umiditate
    00:00 +22°C° 1 mm 0 m/s 734 mmHg 95%
    01:00 +22°C° 1 mm 0 m/s 733 mmHg 96%
    02:00 +22°C° 0.2 mm 0 m/s 733 mmHg 96%
    03:00 +22°C° 0.2 mm 0 m/s 733 mmHg 96%
    04:00 +22°C° 0.2 mm 0 m/s 732 mmHg 96%
    05:00 +22°C° 0 mm 0 m/s 733 mmHg 96%
    06:00 +22°C° 0 mm 0 m/s 733 mmHg 96%
    07:00 +22°C° 0 mm 0 m/s 734 mmHg 96%
    08:00 +24°C° 0 mm 0 m/s 734 mmHg 88%
    09:00 +26°C° 0 mm 0 m/s 734 mmHg 80%
    10:00 +30°C° 0 mm 1 m/s 735 mmHg 71%
    11:00 +31°C° 0 mm 1 m/s 734 mmHg 69%
    12:00 +31°C° 0 mm 1 m/s 733 mmHg 66%
    13:00 +32°C° 0 mm 1 m/s 732 mmHg 63%
    14:00 +30°C° 0.5 mm 0 m/s 732 mmHg 64%
    15:00 +30°C° 0.5 mm 0 m/s 731 mmHg 65%
    16:00 +29°C° 0.5 mm 0 m/s 731 mmHg 66%
    17:00 +29°C° 2.2 mm 1 m/s 731 mmHg 74%
    18:00 +28°C° 2.2 mm 1 m/s 732 mmHg 83%
    19:00 +26°C° 2.2 mm 1 m/s 732 mmHg 92%
    20:00 +25°C° 0.1 mm 1 m/s 733 mmHg 93%
    21:00 +25°C° 0.1 mm 1 m/s 733 mmHg 94%
    22:00 +22°C° 0.1 mm 0 m/s 734 mmHg 94%
    23:00 +22°C° 0 mm 0 m/s 734 mmHg 95%
    Arată mai mult